Keene, NH

1:55 PM EST on November 22, 2017 (GMT -0500)
Dillant-Hopkins

Weather History for KEEN - March, 2015

Change the Weather History Date:

Thursday, March 5, 2015

  Actual Average Record
Temperature  
Mean Temperature 22 °F -  
Max Temperature 35 °F 39 °F 58 °F (1964)
Min Temperature 10 °F 20 °F -7 °F (1926)
Degree Days  
Heating Degree Days 42    
Moisture  
Dew Point 5 °F    
Average Humidity 44    
Maximum Humidity 56    
Minimum Humidity 34    
Precipitation  
Precipitation 0.00 in - - ()
Sea Level Pressure  
Sea Level Pressure 30.08 in    
Wind  
Wind Speed 10 mph (NNW)    
Max Wind Speed 18 mph    
Max Gust Speed 23 mph    
Visibility 10 miles    
Events      
Averages and records for this station are not official NWS values.
T = Trace of Precipitation, MM = Missing Value Source: NWS Daily Summary

Daily Weather History Graph

Daily Weather History Graph

Search for Another Location

Airport or City:

Trip Planner

Search our weather history database for the weather conditions in past years. The results will help you decide how hot, cold, wet, or windy it might be!

Date:

Astronomy

Mar. 05, 2015 Rise Set
Actual Time 6:18 AM EST 5:43 PM EST
Civil Twilight 5:50 AM EST 6:11 PM EST
Nautical Twilight 5:17 AM EST 6:44 PM EST
Astronomical Twilight 4:44 AM EST 7:17 PM EST
Moon 5:53 PM EST (3/5) 6:02 AM EST (3/5)
Length of Visible Light 12h 20m
Length of Day
11h 24m
Full, 100% of the Moon is Illuminated
Mar 5
Full
Mar 5
Full
Mar 13
Last Quarter
Mar 20
New
Mar 27
First Quarter

Hourly Weather History & Observations

Time (EST) Temp. Windchill Dew Point Humidity Pressure Visibility Wind Dir Wind Speed Gust Speed Precip Events Conditions
12:15 AM 35.6 °F 29.2 °F 21.2 °F 56% 29.83 in 10.0 mi West 8.1 mph - N/A   Mostly Cloudy
12:35 AM 35.6 °F 27.5 °F 21.2 °F 56% 29.85 in 10.0 mi WNW 11.5 mph - N/A   Mostly Cloudy
12:55 AM 35.6 °F 28.0 °F 21.2 °F 56% 29.85 in 10.0 mi WNW 10.4 mph 16.1 mph N/A   Overcast
1:15 AM 35.6 °F 27.5 °F 17.6 °F 48% 29.87 in 10.0 mi WNW 11.5 mph 18.4 mph N/A   Overcast
1:35 AM 35.6 °F 29.9 °F 19.4 °F 52% 29.87 in 10.0 mi WNW 6.9 mph - N/A   Overcast
1:55 AM 33.8 °F 27.7 °F 17.6 °F 52% 29.87 in 10.0 mi WNW 6.9 mph - N/A   Mostly Cloudy
2:15 AM 33.8 °F 27.7 °F 15.8 °F 48% 29.87 in 10.0 mi WNW 6.9 mph - N/A   Scattered Clouds
2:35 AM 33.8 °F 27.7 °F 15.8 °F 48% 29.87 in 10.0 mi WNW 6.9 mph 16.1 mph N/A   Scattered Clouds
2:55 AM 33.8 °F 26.4 °F 15.8 °F 48% 29.86 in 10.0 mi NNW 9.2 mph - N/A   Mostly Cloudy
3:15 AM 33.8 °F 25.8 °F 15.8 °F 48% 29.86 in 10.0 mi NW 10.4 mph 16.1 mph N/A   Mostly Cloudy
3:35 AM 33.8 °F 27.7 °F 15.8 °F 48% 29.89 in 10.0 mi WNW 6.9 mph - N/A   Scattered Clouds
3:55 AM 33.8 °F 26.4 °F 15.8 °F 48% 29.89 in 10.0 mi WNW 9.2 mph 17.3 mph N/A   Mostly Cloudy
4:15 AM 33.8 °F 27.7 °F 15.8 °F 48% 29.90 in 10.0 mi NW 6.9 mph 16.1 mph N/A   Overcast
4:35 AM 32.0 °F 22.5 °F 17.6 °F 55% 29.91 in 10.0 mi North 12.7 mph 18.4 mph N/A   Overcast
4:55 AM 30.2 °F 20.2 °F 15.8 °F 55% 29.95 in 10.0 mi NNW 12.7 mph 19.6 mph N/A   Overcast
5:15 AM 30.2 °F 20.2 °F 12.2 °F 47% 29.96 in 10.0 mi NNW 12.7 mph 20.7 mph N/A   Overcast
5:35 AM 28.4 °F 18.5 °F 10.4 °F 47% 29.97 in 10.0 mi NNW 11.5 mph 20.7 mph N/A   Mostly Cloudy
5:55 AM 28.4 °F 16.6 °F 8.6 °F 43% 29.98 in 10.0 mi North 16.1 mph 19.6 mph N/A   Partly Cloudy
6:15 AM 28.4 °F 17.5 °F 6.8 °F 40% 29.98 in 10.0 mi NW 13.8 mph 19.6 mph N/A   Clear
6:35 AM 28.4 °F 19.7 °F 6.8 °F 40% 29.99 in 10.0 mi NNW 9.2 mph - N/A   Clear
6:55 AM 26.6 °F 16.2 °F 5.0 °F 40% 30.00 in 10.0 mi NNW 11.5 mph 21.9 mph N/A   Partly Cloudy
7:15 AM 26.6 °F 14.3 °F 3.2 °F 37% 29.99 in 10.0 mi North 16.1 mph 21.9 mph N/A   Clear
7:35 AM 26.6 °F 14.7 °F 3.2 °F 37% 30.00 in 10.0 mi NNW 15.0 mph 23.0 mph N/A   Partly Cloudy
7:55 AM 26.6 °F 16.8 °F 3.2 °F 37% 30.02 in 10.0 mi NNW 10.4 mph 19.6 mph N/A   Partly Cloudy
8:15 AM 26.6 °F 16.2 °F 3.2 °F 37% 30.02 in 10.0 mi NNW 11.5 mph - N/A   Clear
8:35 AM 26.6 °F 17.5 °F 3.2 °F 37% 30.03 in 10.0 mi NNW 9.2 mph - N/A   Clear
8:55 AM 26.6 °F 18.2 °F 3.2 °F 37% 30.04 in 10.0 mi North 8.1 mph - N/A   Clear
9:15 AM 26.6 °F 15.7 °F 3.2 °F 37% 30.05 in 10.0 mi NNW 12.7 mph 17.3 mph N/A   Clear
9:35 AM 26.6 °F 13.4 °F 1.4 °F 34% 30.05 in 10.0 mi North 18.4 mph 23.0 mph N/A   Clear
9:55 AM 26.6 °F 15.7 °F 1.4 °F 34% 30.06 in 10.0 mi NNW 12.7 mph 16.1 mph N/A   Clear
10:15 AM 24.8 °F 14.0 °F 1.4 °F 36% 30.06 in 10.0 mi North 11.5 mph - N/A   Clear
10:35 AM 24.8 °F 12.9 °F 3.2 °F 40% 30.08 in 10.0 mi North 13.8 mph - N/A   Clear
10:55 AM 24.8 °F 12.4 °F 3.2 °F 40% 30.08 in 10.0 mi NNW 15.0 mph 18.4 mph N/A   Clear
11:15 AM 24.8 °F 13.4 °F 1.4 °F 36% 30.08 in 10.0 mi North 12.7 mph - N/A   Clear
11:35 AM 24.8 °F 11.1 °F 3.2 °F 40% 30.07 in 10.0 mi North 18.4 mph 21.9 mph N/A   Clear
11:55 AM 23.0 °F 9.6 °F 3.2 °F 43% 30.06 in 10.0 mi North 16.1 mph - N/A   Clear
12:15 PM 23.0 °F 11.7 °F 1.4 °F 39% 30.09 in 10.0 mi NNW 11.5 mph 21.9 mph N/A   Clear
12:35 PM 21.2 °F 9.5 °F 1.4 °F 42% 30.10 in 5.0 mi NNW 11.5 mph 19.6 mph N/A   Partly Cloudy
12:55 PM 21.2 °F 10.1 °F 1.4 °F 42% 30.09 in 10.0 mi NNW 10.4 mph - N/A   Partly Cloudy
1:15 PM 21.2 °F 9.5 °F 1.4 °F 42% 30.09 in 10.0 mi NNW 11.5 mph - N/A   Scattered Clouds
1:35 PM 21.2 °F 11.7 °F 3.2 °F 46% 30.09 in 10.0 mi NW 8.1 mph - N/A   Clear
1:55 PM 21.2 °F 11.7 °F 3.2 °F 46% 30.10 in 10.0 mi NW 8.1 mph - N/A   Clear
2:15 PM 21.2 °F 10.9 °F 3.2 °F 46% 30.10 in 10.0 mi NW 9.2 mph - N/A   Partly Cloudy
2:35 PM 21.2 °F 10.9 °F 3.2 °F 46% 30.11 in 10.0 mi North 9.2 mph - N/A   Partly Cloudy
2:55 PM 21.2 °F 9.5 °F 1.4 °F 42% 30.12 in 10.0 mi North 11.5 mph - N/A   Partly Cloudy
3:15 PM 21.2 °F 11.7 °F -0.4 °F 39% 30.12 in 10.0 mi NNW 8.1 mph - N/A   Scattered Clouds
3:35 PM 21.2 °F 10.1 °F -0.4 °F 39% 30.12 in 10.0 mi NNW 10.4 mph - N/A   Partly Cloudy
3:55 PM 21.2 °F 10.1 °F -0.4 °F 39% 30.12 in 10.0 mi NNW 10.4 mph - N/A   Scattered Clouds
4:15 PM 21.2 °F 10.1 °F -0.4 °F 39% 30.12 in 10.0 mi North 10.4 mph 16.1 mph N/A   Partly Cloudy
4:35 PM 19.4 °F 6.6 °F -0.4 °F 42% 30.13 in 10.0 mi NNW 12.7 mph - N/A   Clear
4:55 PM 19.4 °F 7.9 °F -0.4 °F 42% 30.13 in 10.0 mi NNW 10.4 mph - N/A   Clear
5:15 PM 19.4 °F 9.5 °F -0.4 °F 42% 30.14 in 10.0 mi North 8.1 mph - N/A   Clear
5:35 PM 19.4 °F 7.9 °F -0.4 °F 42% 30.16 in 10.0 mi NNW 10.4 mph - N/A   Clear
5:55 PM 19.4 °F 6.6 °F -0.4 °F 42% 30.17 in 10.0 mi North 12.7 mph - N/A   Partly Cloudy
6:15 PM 17.6 °F 4.3 °F -0.4 °F 45% 30.17 in 10.0 mi North 12.7 mph - N/A   Scattered Clouds
6:35 PM 17.6 °F 7.3 °F 1.4 °F 49% 30.20 in 10.0 mi North 8.1 mph 16.1 mph N/A   Partly Cloudy
6:55 PM 17.6 °F 8.2 °F -0.4 °F 45% 30.21 in 10.0 mi NW 6.9 mph - N/A   Partly Cloudy
7:15 PM 17.6 °F 6.4 °F -0.4 °F 45% 30.22 in 10.0 mi NNW 9.2 mph - N/A   Partly Cloudy
7:35 PM 17.6 °F 5.7 °F -0.4 °F 45% 30.22 in 10.0 mi NNW 10.4 mph - N/A   Partly Cloudy
7:55 PM 17.6 °F 4.3 °F -0.4 °F 45% 30.23 in 10.0 mi NNW 12.7 mph - N/A   Clear
8:15 PM 17.6 °F 5.7 °F -2.2 °F 42% 30.22 in 10.0 mi North 10.4 mph - N/A   Clear
8:35 PM 17.6 °F 5.0 °F -0.4 °F 45% 30.23 in 10.0 mi NNW 11.5 mph - N/A   Clear
8:55 PM 17.6 °F 7.3 °F -2.2 °F 42% 30.24 in 10.0 mi NNW 8.1 mph - N/A   Clear
9:15 PM 17.6 °F 10.7 °F -2.2 °F 42% 30.26 in 10.0 mi NW 4.6 mph - N/A   Clear
9:35 PM 15.8 °F 6.1 °F -2.2 °F 45% 30.27 in 10.0 mi NNW 6.9 mph - N/A   Clear
9:55 PM 15.8 °F 7.2 °F -2.2 °F 45% 30.28 in 10.0 mi NNW 5.8 mph - N/A   Clear
10:15 PM 15.8 °F 8.6 °F -4.0 °F 41% 30.30 in 10.0 mi NNW 4.6 mph - N/A   Clear
10:35 PM 14.0 °F 2.9 °F -4.0 °F 45% 30.30 in 10.0 mi North 8.1 mph - N/A   Clear
10:55 PM 12.2 °F -0.2 °F -4.0 °F 48% 30.31 in 10.0 mi North 9.2 mph - N/A   Clear
11:15 PM 10.4 °F -0.4 °F -5.8 °F 48% 30.32 in 10.0 mi North 6.9 mph - N/A   Clear
11:35 PM 10.4 °F -2.4 °F -5.8 °F 48% 30.32 in 10.0 mi North 9.2 mph - N/A   Clear
11:55 PM 10.4 °F -0.4 °F -5.8 °F 48% 30.33 in 10.0 mi North 6.9 mph - N/A   Clear